Tracking 31032 objects as of 14-Jul-2025
HD Live streaming from Space Station
objects crossing your sky now

SL-14 R/B

Track SL-14 R/B now!
10-day predictions


NORAD ID: 16612
Int'l Code: 1986-018B
Perigee: 603.9 km
Apogee: 629.1 km
Inclination: 82.5 °
Period: 96.9 minutes
Semi major axis: 6987 km
RCS: 4.4703 m2 (large)
Launch date: February 19, 1986
Source: Commonwealth of Independent States (former USSR) (CIS)
Launch site: PLESETSK MISSILE AND SPACE COMPLEX (PKMTR)

Note: This is a ROCKET BODY
Your satellite tracking list
Your tracking list is empty




NASA's NSSDC Master Catalog

Two Line Element Set (TLE):
1 16612U 86018B   25194.55907515  .00000321  00000-0  33559-4 0  9992
2 16612  82.5144  48.1420 0018024 131.3002 228.9769 14.86354468  7825
Source of the keplerian elements: AFSPC